Location: Sungai Anya
(2.6167°N, 114.0500°E)
Time: 20:04:04
(UTC+00:00)

MOS 1-B - Pass Details

Date: 19 October 2021
Orbit: 905 x 913 km, 99.4° (Epoch: 08 December)

Event Time Altitude Azimuth Distance (km) Brightness Sun altitude
Rises 10:24:46 0° 158° (SSE) 3,542 7.3 -4.4°
Reaches altitude 10° 10:27:14 10° 154° (SSE) 2,599 6.6 -5.0°
Maximum altitude 10:32:54 57° 77° (ENE) 1,061 4.4 -6.4°
Drops below altitude 10° 10:38:33 10° 359° (N) 2,587 6.7 -7.8°
Sets 10:40:59 0° 355° (N) 3,525 7.4 -8.4°
